Details for UPS at KPHL




Go Back


Latest METAR
Local Time

KPHL 150454Z 24010KT 8SM FEW080 BKN110 OVC180 22/20 A2991 RMK AO2 RAE14 SLP127 P0001 T02220200 402830200 $
15/08/2018, 01:19:42

Description
Results
UPS Logo
Number of Pilots based at KPHL
0 Pilots Based here
Number of UPS Flights Departed from KPHL
1 Flights Departed
Number of UPS Flights Arrived at KPHL
0 Flights Arrived
Number of UPS Schedules Departing from KPHL
195 Schedules
Number of UPS Schedules Arriving at KPHL
184 Schedules
Number of UPS Schedules Departing from KPHL availible today
48 Schedules Today
Number of UPS Schedules Arriving at KPHL availible today
44 Schedules Today
Average Landing Rate at KPHL
-253 fpm
UPS Average Landing Rate at KPHL
0 fpm
Total Fuel Purchased at KPHL by UPS
47,901.62 kgs / 105,603.91 lbs

Pilots Based at KPHL


Pilot ID
Pilot Name
Pilot Rank
No. of Flights
No. of Flying Hours
There are no pilots assigned to this hub!   Will you be the first?
Content